{"data":{"norad_id":55938,"intl_designator":"2023-037AA","name":"STARLINK-5909","alt_names":[],"object_type":"PAYLOAD","status":"ACTIVE","operator":null,"country":"US","launch_date":"2023-03-17","launch_site_code":"AFWTR","launch_vehicle":null,"mission":null,"orbit_class":"UNKNOWN","rcs_meters":null,"size_class":null,"mass_kg":null,"dimensions":null,"purposes":["comms"],"wikipedia_slug":null,"has_3d_model":false,"image_url":null,"decayed_at":null,"tle_current":{"epoch":"2026-05-25T03:44:48.121728Z","epoch_age_seconds":68531,"freshness":"FRESH","line1":"1 55938U 23037AA  26145.15611252 -.00002229  00000+0 -17911-3 0  9994","line2":"2 55938  70.0000  91.6799 0003372 272.2191  87.8582 14.98322369175434","mean_motion":14.98322369,"eccentricity":0.0003372,"inclination_deg":70,"raan_deg":91.6799,"arg_perigee_deg":272.2191,"mean_anomaly_deg":87.8582,"bstar":-0.00017911,"rev_number":17543,"period_min":96.107488601473,"perigee_km":569.7358762824,"apogee_km":574.42310228277,"semimajor_km":6950.2164892826,"source":"CELESTRAK","updated_at":"2026-05-25T13:38:17.915356Z"}}}